Weather in Nekrasovka

Russia / Omsk Oblast     54°53′16″N   74°07′55″E
temp.,
°C
wind,
m/s
gust,
m/s
humid.,
%
clouds,
%
prec.,
mm/h
press.,
hPa
HPBL,
m
22 april, thu
thu2200:00−2nne49690 0.0 1035599
03:00−2nne47725 0.0 1038465
06:00−3ne37765 0.0 1040344
09:000ene46545 0.0 1042748
12:00+4ene34400 0.0 10441281
15:00+5e23350 0.0 10441495
18:00+6e23342 0.0 10441492
21:00+3ese345168 0.0 104543
23 april, fri
fri2300:00+1se36635 0.0 1045108
03:000sse35660 0.0 104596
06:00−1se35650 0.0 1046100
09:00+3sse45485 0.0 1046658
12:00+6sse34380 0.0 10451245
15:00+8sse44330 0.0 10431432
18:00+8sse34330 0.0 10421441
21:00+5sse355098 0.0 104266
24 april, sat
sat2400:00+3se476083 0.0 1041128
03:00+1sse3669100 0.0 1040107
06:000sse3670100 0.0 103990
09:00+5sse46508 0.0 1038457
12:00+8s5537100 0.0 10361434
15:00+10s4531100 0.0 10341559
18:00+10sse4530100 0.0 10321578
21:00+7se3747100 0.0 1032134
25 april, sun
sun2500:00+5se4954100 0.0 1031191
03:00+4se41058100 0.0 1030241
06:00+3se41160100 0.0 1030258
09:00+6se61147100 0.0 1029592
12:00+9se7936100 0.0 10281217
15:00+11se7830100 0.0 10261526
18:00+11se6834100 0.0 10251559
21:00+8ese5114643 0.0 1024281
26 april, mon
mon2600:00+6se51350100 0.0 1024334
03:00+5se5135868 0.0 1023296
06:00+4se51263100 0.0 1023261
09:00+8sse6104551 0.0 1022439
12:00+13s783594 0.0 10221049
15:00+16s6830100 0.0 10211699
18:00+16sw4540100 0.0 10201476
21:00+12wsw3661100 0.0 1021123